SCP
0 0 0 0 0 0 0 0 0 0 0 0 0 0 0 0 0 0 0 0 0 0 0 0 0 0 0 0 0 0 0 0 0 0 0 0 0 0 0 0 0 0 0
0 0 0 0 0 0 0 0 0 0 0 0 0 0 0 0 0 0 0 0 0 0 0 0 0 0 0 0 0 0 0 0 0 0 0 0 0 0 0 0 0 0 0
0 0 0 0 0 0 0 0 0 0 0 0 0 0 0 0 0 0 0 0 0 0 0 0 0 0 0 0 0 0 0 0 0 0 0 0 0 0 0 0 0 0 0
0 0 0 0 0 0 0 0 0 0 0 0 0 0 0 0 0 0 0 0 0 0 0 0 0 0 0 0 0 0 0 0 0 0 0 0 0 0 0 0 0 0 0
0 0 0 0 0 0 0 0 0 0 0 0 0 0 0 0 0 0 0 0 0 0 0 0 0 0 0 0 0 0 0 0 0 0 0 0 0 0 0 0 0 0 0
0 0 0 0 0 0 0 0 0 -0 0 0 0 0 0 0 0 0 0 0 0 0 0 0 0 0 0 0 0 0 0 0 0 0 0 0 0 0 -0 0 0 0 0
0 0 0 0 0 0 0 0 0 0 -0 0 0 0 0 0 0 0 0 0 0 0 0 0 0 0 0 0 0 0 0 0 0 0 0 0 0 0 -0 -0 0 0 0
0 0 0 0 0 0 0 0 0 0 0 0 0 0 0 0 0 0 0 0 0 0 0 0 0 0 0 0 0 0 0 0 0 0 0 0 0 0 0 -0 0 0 0
0 0 0 0 0 0 0 0 0 0 0 0 0 0 0 0 0 0 0 0 0 0 0 0 0 0 0 0 0 0 0 0 0 0 0 0 0 0 0 0 0 0 0
0 0 0 0 0 0 0 0 0 0 0 0 0 0 0 0 0 0 0 0 0 0 0 0 0 0 0 0 0 0 0 0 0 0 0 0 0 0 0 0 0 0 0
0 0 0 0 0 0 0 0 0 0 0 0 0 0 0 0 0 0 0 0 0 0 0 0 0 0 0 0 0 0 0 0 0 0 0 0 0 0 0 0 0 0 0
0 0 0 0 0 0 0 0 0 0 0 0 0 0 0 0 0 0 0 0 0 0 0 0 0 0 0 0 0 0 0 0 0 0 0 0 0 0 0 0 0 0 0
0 0 0 0 0 0 0 0 0 0 0 0 0 0 0 0 0 0 0 0 0 0 0 0 0 0 0 0 0 0 0 0 0 0 0 0 0 0 0 0 0 0 0
0 0 0 0 0 0 0 0 0 0 0 0 0 0 0 0 0 0 0 0 0 0 0 0 0 0 0 0 0 0 0 0 0 0 0 0 0 0 0 0 0 0 0
0 0 0 0 0 0 0 0 0 0 0 0 0 0 0 0 0 0 0 0 0 0 0 0 0 0 0 0 0 0 0 0 0 0 0 0 0 0 0 0 0 0 0
0 0 0 -0 -0 -0 0 0 0 0 0 0 0 0 0 0 0 0 0 0 0 0 0 0 0 0 0 0 0 0 0 0 0 0 0 0 0 0 0 0 0 0 0
0 0 -0 -0 -0 -0 0 0 0 0 0 0 0 0 0 0 0 0 0 0 0 0 0 0 0 0 0 0 0 0 0 0 0 0 0 0 0 0 0 0 0 0 0
0 0 -0 -0 -0 -0 0 0 0 0 0 0 0 0 0 0 0 0 0 0 0 0 0 0 0 0 0 0 0 0 0 0 0 0 0 0 0 0 0 0 0 0 0
0 0 0 0 0 0 0 0 0 0 0 0 0 0 0 0 0 0 0 0 0 0 0 0 0 0 0 0 0 0 0 0 0 0 0 0 0 0 0 0 0 0 0
0 0 0 0 0 0 0 0 0 0 0 0 0 0 0 0 0 0 0 0 0 0 0 0 0 0 0 0 0 0 0 0 0 0 0 0 0 0 0 0 0 0 0
0 0 0 0 0 0 0 0 0 0 0 0 0 0 0 0 0 0 0 0 0 0 0 0 0 0 0 0 0 0 0 0 0 0 0 0 0 0 0 0 0 0 0
0 0 -0 -0 0 0 0 0 0 0 0 0 0 0 0 0 0 0 0 0 0 0 0 0 0 0 0 0 0 0 0 0 0 0 0 0 0 0 0 0 0 0 0
0 0 0 0 -0 0 0 0 0 0 0 0 0 0 -0 0 0 0 0 0 0 0 0 0 0 0 0 0 0 0 0 0 0 0 0 0 0 0 0 0 0 0 0
0 0 0 0 0 0 0 0 0 0 0 0 -0 -0 -0 -0 -0 0 0 0 0 0 0 0 0 0 0 0 0 0 0 0 0 0 0 0 0 0 0 0 0 0 0
0 0 0 0 0 0 0 0 0 0 0 0 0 -0 -0 -0 -0 0 0 0 0 0 0 0 0 0 0 0 0 0 0 0 0 0 0 0 0 0 0 0 0 0 0
0 0 0 0 -0 0 0 0 0 0 0 0 0 0 0 0 0 0 0 0 0 0 0 0 0 0 0 0 0 0 0 0 0 0 0 0 0 0 0 0 0 0 0
Wind_Speed
1 2 2 2 2 2 2 2 2 1 1 1 1 1 1 1 0 0 1 1 1 1 0 0 0 0 0 1 1 0 0 0 0 0 1 2 2 2 2 2 2 2 2
1 2 2 2 2 1 1 1 1 1 1 1 1 1 1 1 1 0 1 1 1 2 1 0 0 0 0 1 1 0 0 1 0 1 0 1 1 1 1 1 1 1 1
2 1 1 1 1 1 0 1 1 1 1 1 1 1 1 1 0 0 0 1 1 1 1 1 1 1 1 1 1 1 1 1 1 1 1 1 1 1 2 1 0 1 0
2 1 1 0 0 0 0 0 1 1 1 1 1 1 1 1 1 1 1 1 1 1 1 1 1 1 1 1 2 1 1 2 2 1 1 1 1 1 1 1 1 1 1
2 1 1 1 0 0 0 0 1 1 1 1 1 1 2 2 1 1 1 1 1 1 1 1 1 1 1 2 2 2 2 2 2 2 1 1 1 1 2 2 2 1 1
1 1 1 1 0 0 0 0 1 1 1 1 2 2 3 3 2 2 2 2 1 1 2 1 1 1 1 2 2 2 2 2 3 2 1 1 2 2 2 2 2 2 2
1 1 1 1 0 0 1 1 1 2 2 2 2 3 3 4 3 3 3 2 2 2 2 2 1 2 2 2 2 2 3 3 3 3 3 2 3 2 2 2 2 2 2
0 0 0 1 1 1 1 1 2 3 3 3 3 3 3 3 3 3 3 3 2 2 3 2 2 2 2 3 2 2 3 3 3 4 3 3 3 2 2 3 2 2 3
1 1 1 0 1 1 2 2 2 3 3 3 3 4 3 3 4 3 3 3 3 3 3 3 3 3 3 3 3 3 4 4 4 4 4 4 3 3 2 2 3 3 4
3 3 2 1 1 2 2 2 2 3 4 4 4 4 3 3 4 3 3 3 3 3 3 4 4 3 3 3 3 3 3 4 4 3 4 4 3 3 3 3 3 3 4
2 3 3 2 2 2 2 2 2 3 4 4 4 5 4 4 4 4 4 4 4 4 4 4 4 4 4 3 3 4 4 5 4 4 4 5 5 4 3 3 3 3 3
2 3 3 2 2 2 2 3 3 3 4 4 4 5 4 3 4 4 4 4 4 4 4 4 5 5 4 4 4 5 5 5 5 5 5 6 5 5 4 4 5 4 4
3 3 3 3 3 3 3 3 3 4 4 4 5 5 4 4 5 5 4 4 4 4 4 5 5 5 5 5 5 5 6 6 6 6 6 6 6 6 5 5 5 5 4
3 3 4 4 4 3 4 4 4 4 4 4 4 5 4 4 4 4 4 4 5 5 5 5 5 5 5 6 6 5 6 6 6 6 6 7 7 7 6 6 6 5 5
4 4 5 4 4 4 4 4 4 4 4 5 5 5 4 3 4 4 4 4 5 5 5 5 5 5 6 6 6 5 6 6 6 7 7 8 9 10 9 7 6 6 6
5 6 6 5 5 5 5 5 5 5 5 5 5 4 3 3 4 4 4 5 5 5 5 5 5 6 6 8 9 8 6 6 7 8 8 8 9 10 12 12 12 10 9
5 6 6 6 6 5 5 5 5 5 5 5 5 4 3 3 4 4 4 5 5 5 5 5 6 6 7 9 10 10 7 7 7 8 7 7 8 9 8 10 11 12 14
6 6 6 6 6 5 5 5 5 5 5 5 4 4 4 4 4 4 5 5 4 5 5 6 6 6 7 9 10 10 7 7 8 8 8 9 8 8 9 8 9 9 10
5 5 5 6 6 6 6 5 5 4 4 5 4 4 4 4 4 5 5 4 4 5 5 6 6 6 7 9 10 9 5 6 8 8 8 9 9 11 11 9 9 9 9
5 5 5 5 6 6 6 5 5 4 4 4 5 4 4 4 5 5 5 4 5 5 6 6 6 6 7 9 10 10 5 6 7 7 7 10 11 12 12 9 9 10 9
6 6 5 5 6 6 6 6 6 5 5 5 5 5 4 4 5 5 5 4 5 5 5 6 6 6 7 9 10 10 5 6 7 6 6 6 11 13 13 12 10 11 9
6 6 6 6 6 6 5 6 7 6 5 5 5 5 4 4 4 4 4 4 5 5 5 5 5 4 5 7 9 11 11 9 8 7 6 7 11 12 13 11 10 11 9
6 6 6 7 6 6 5 6 7 7 6 5 5 5 5 4 4 3 4 4 4 3 4 4 5 4 4 5 10 11 12 12 8 7 10 11 11 11 9 10 11 9 6
5 5 6 7 7 7 7 6 7 7 6 6 5 5 4 4 4 3 3 3 3 3 4 4 5 5 4 4 4 5 6 8 8 6 8 10 10 9 9 8 6 5 5
5 5 5 6 7 7 7 8 7 6 6 6 5 5 4 4 3 3 3 4 4 4 5 4 5 5 5 7 10 8 6 5 5 5 4 4 4 4 4 4 4 4 4
5 5 5 6 7 7 7 7 7 7 6 6 5 4 4 4 3 3 4 6 6 9 10 9 8 7 9 11 11 11 11 11 9 5 4 4 4 4 4 4 4 4 4
Wind_Direction
153 103 92 91 88 75 73 52 20 0 10 356 327 309 287 274 286 16 24 17 2 345 309 280 7 350 305 318 319 82 15 346 68 20 309 294 264 235 218 197 186 183 185
137 104 82 78 76 66 51 45 19 1 352 334 301 255 276 253 210 45 17 1 344 336 318 307 263 270 310 328 316 89 12 292 97 144 245 314 315 341 298 218 184 185 174
176 155 105 83 66 39 14 333 343 332 326 326 343 338 330 312 304 320 269 297 308 312 333 298 257 242 241 247 274 219 205 228 253 210 190 174 229 321 304 296 147 108 111
139 145 132 95 71 290 331 323 305 321 325 332 335 305 273 274 273 252 251 282 295 300 310 281 264 251 235 239 256 245 214 203 233 258 270 257 192 189 271 308 339 357 333
142 166 173 189 299 356 347 313 298 293 303 308 287 280 272 267 265 271 269 267 275 278 287 284 263 260 259 250 249 260 230 212 226 238 259 275 263 229 194 244 273 289 275
122 124 118 140 154 41 333 309 297 285 282 277 281 266 273 267 256 260 262 259 258 271 267 280 270 259 256 256 253 256 238 228 237 248 243 224 217 216 212 220 245 268 273
158 168 173 165 175 299 310 301 282 283 276 272 272 264 269 260 238 236 237 253 259 275 266 275 265 264 258 260 258 256 250 234 232 235 245 240 236 237 244 224 244 268 282
73 240 203 177 203 252 276 281 278 277 275 268 268 264 260 260 243 234 234 235 240 248 258 261 261 264 262 265 255 255 256 248 236 239 242 247 243 238 224 219 224 261 278
356 337 329 253 241 248 260 259 265 273 274 272 269 267 262 265 257 244 237 235 238 248 247 255 261 263 260 259 258 250 251 247 241 235 240 245 242 237 232 219 202 215 254
345 335 325 300 266 255 262 261 258 267 272 271 264 272 262 259 261 245 242 243 243 245 243 247 256 260 259 258 256 256 254 252 244 238 240 244 240 235 226 223 229 223 230
323 322 313 311 298 294 284 276 269 274 275 271 263 265 261 256 262 252 241 244 243 242 244 246 251 255 256 254 255 258 258 256 252 248 244 244 237 233 225 222 225 227 226
321 312 308 314 313 304 296 285 277 272 272 270 264 261 259 252 255 255 246 245 247 246 246 247 249 253 256 251 248 254 257 251 252 250 249 249 241 234 227 223 228 231 231
323 313 308 305 304 304 298 291 285 277 271 266 262 257 250 248 249 256 251 247 246 250 251 248 248 249 253 253 251 249 253 252 252 252 249 250 240 241 234 228 231 233 239
310 310 312 310 308 305 302 297 292 284 280 272 263 257 248 247 253 256 255 250 248 248 245 245 246 247 251 255 255 255 257 258 257 257 254 252 243 239 236 233 231 230 233
314 315 311 309 311 311 307 304 298 290 284 275 266 259 253 249 255 257 252 253 253 254 251 250 249 246 248 248 250 251 256 257 261 260 255 254 251 247 243 239 231 226 229
310 313 312 309 308 304 301 299 295 293 287 275 269 265 252 248 251 257 256 252 254 255 257 256 252 250 255 261 265 263 254 256 258 262 261 261 254 250 252 249 243 235 228
308 307 305 304 305 303 299 292 288 286 283 280 278 270 257 254 258 263 265 260 257 255 257 258 253 252 256 263 265 266 259 252 253 255 260 264 261 253 246 249 249 243 240
307 305 304 305 306 303 302 296 290 283 281 281 276 280 274 264 265 264 262 261 263 259 258 258 252 255 261 268 269 271 263 256 255 253 254 257 255 250 248 247 247 243 239
299 299 303 307 310 309 307 303 295 286 282 279 277 275 275 272 268 266 264 263 266 267 262 260 255 254 258 265 270 271 257 259 260 259 259 258 252 256 254 249 248 249 248
319 317 315 314 313 313 313 305 299 290 286 284 282 279 272 270 265 262 263 263 263 266 269 270 261 258 257 266 272 273 256 261 264 262 258 257 258 258 253 243 240 244 248
327 326 319 314 313 316 318 312 313 302 296 296 291 283 275 268 266 264 264 264 264 261 261 267 267 260 261 265 269 272 263 259 265 265 261 256 263 264 259 253 242 244 250
329 329 325 319 319 321 319 316 313 311 310 304 299 292 286 280 276 268 268 264 257 256 259 265 269 263 264 269 268 271 273 273 266 266 265 262 269 271 267 256 247 248 250
323 326 322 319 323 326 324 315 314 317 317 312 306 302 298 292 288 277 272 270 262 258 265 264 269 273 272 273 278 275 275 275 272 269 270 272 272 274 269 257 248 241 233
319 323 323 322 323 327 328 323 320 323 322 318 313 305 303 301 295 283 272 267 267 266 265 266 269 274 275 271 270 271 274 275 276 275 275 275 273 271 266 256 245 236 228
319 320 319 318 320 326 328 328 329 330 325 321 318 318 312 306 303 301 294 288 275 270 272 266 264 268 272 277 288 291 284 281 273 285 279 271 274 268 259 248 237 231 226
316 319 319 318 319 323 325 328 332 334 329 324 325 325 322 317 312 307 308 303 293 298 292 285 282 281 282 289 291 294 296 296 294 291 270 269 268 266 261 249 243 236 228